This is the latest recevied weather packets stored in our database for station/object SP1BMW-13. If no packets are shown the sender has not sent any weather packets the latest 10 day(s).
| Time | Temp. | Humidity | Pressure | Rain* | Wind** | Luminosity | Snow |
|---|---|---|---|---|---|---|---|
| 1788088897 | 25.56° C | 51% | 1007.5 hPa | 0 mm | 0.89 m/s, 119° | 719 W/m² | - |
| 1788088837 | 25.56° C | 51% | 1007.7 hPa | 0 mm | 1.79 m/s, 168° | 730 W/m² | - |
| 1788088780 | 25.56° C | 51% | 1007.7 hPa | 0 mm | 1.79 m/s, 261° | 752 W/m² | - |
| 1788088717 | 25° C | 53% | 1007.5 hPa | 0 mm | 1.79 m/s, 194° | 181 W/m² | - |
| 1788088657 | 25° C | 55% | 1007.5 hPa | 0 mm | 0.89 m/s, 125° | 662 W/m² | - |
| 1788088597 | 24.44° C | 55% | 1007.3 hPa | 0 mm | 0.45 m/s, 309° | 738 W/m² | - |
| 1788088537 | 24.44° C | 55% | 1007.7 hPa | 0 mm | 1.34 m/s, 34° | 215 W/m² | - |
| 1788088477 | 24.44° C | 55% | 1007.7 hPa | 0 mm | 1.79 m/s, 288° | 306 W/m² | - |
| 1788088421 | 24.44° C | 56% | 1007.7 hPa | 0 mm | 0.89 m/s, 246° | 740 W/m² | - |
| 1788088357 | 24.44° C | 57% | 1007.7 hPa | 0 mm | 0.89 m/s, 226° | 208 W/m² | - |
| 1788088297 | 24.44° C | 58% | 1007.6 hPa | 0 mm | 0.45 m/s, 261° | 157 W/m² | - |
| 1788088237 | 24.44° C | 56% | 1007.6 hPa | 0 mm | 0.89 m/s, 254° | 148 W/m² | - |
| 1788088177 | 24.44° C | 57% | 1007.8 hPa | 0 mm | 0.89 m/s, 340° | 119 W/m² | - |
| 1788088118 | 24.44° C | 56% | 1007.7 hPa | 0 mm | 0.89 m/s, 242° | 106 W/m² | - |
| 1788088057 | 24.44° C | 56% | 1007.6 hPa | 0 mm | 1.34 m/s, 286° | 111 W/m² | - |
| 1788087997 | 24.44° C | 56% | 1007.7 hPa | 0 mm | 0.89 m/s, 274° | 130 W/m² | - |
| 1788087936 | 24.44° C | 56% | 1007.6 hPa | 0 mm | 0.89 m/s, 277° | 190 W/m² | - |
| 1788087877 | 24.44° C | 55% | 1007.7 hPa | 0 mm | 1.79 m/s, 312° | 171 W/m² | - |
| 1788087817 | 24.44° C | 56% | 1007.7 hPa | 0 mm | 1.34 m/s, 321° | 159 W/m² | - |
| 1788087757 | 24.44° C | 56% | 1007.7 hPa | 0 mm | 0.89 m/s, 240° | 158 W/m² | - |
| 1788087697 | 23.89° C | 59% | 1007.6 hPa | 0 mm | 0.89 m/s, 275° | 729 W/m² | - |
| 1788087637 | 23.89° C | 58% | 1007.7 hPa | 0 mm | 1.34 m/s, 236° | 732 W/m² | - |
| 1788087578 | 23.89° C | 58% | 1007.9 hPa | 0 mm | 1.34 m/s, 294° | 562 W/m² | - |
| 1788087517 | 23.89° C | 58% | 1007.7 hPa | 0 mm | 0.89 m/s, 76° | 430 W/m² | - |
| 1788087457 | 23.89° C | 58% | 1008 hPa | 0 mm | 0.89 m/s, 299° | 107 W/m² | - |
* Rain latest hour (hover to see other rain measurements)
** Current wind speed in m/s (hover to see current wind gust speed)